TimePST,TemperatureF,Dew PointF,Humidity,Sea Level PressureIn,VisibilityMPH,Wind Direction,Wind SpeedMPH,Gust SpeedMPH,PrecipitationIn,Events,Conditions,WindDirDegrees,DateUTC
12:56 AM,43.9,10.0,25,30.12,10.0,South,8.1,-,N/A,,Clear,190,2012-11-14 08:56:00
1:56 AM,41.9,10.0,27,30.12,10.0,South,8.1,-,N/A,,Clear,190,2012-11-14 09:56:00
2:56 AM,41.0,10.0,28,30.11,10.0,SSW,9.2,-,N/A,,Clear,200,2012-11-14 10:56:00
3:56 AM,38.8,12.0,33,30.12,10.0,SSE,8.1,-,N/A,,Clear,160,2012-11-14 11:56:00
4:56 AM,38.8,13.1,35,30.14,10.0,Calm,Calm,-,N/A,,Clear,0,2012-11-14 12:56:00
6:56 AM,37.9,14.0,38,30.16,10.0,SSE,9.2,-,N/A,,Clear,160,2012-11-14 14:56:00
7:56 AM,47.8,16.2,28,30.17,10.0,SSE,6.9,-,N/A,,Clear,160,2012-11-14 15:56:00
8:56 AM,56.8,13.1,18,30.16,10.0,Calm,Calm,-,N/A,,Clear,0,2012-11-14 16:56:00
9:56 AM,61.0,18.1,19,30.15,10.0,Calm,Calm,-,N/A,,Clear,0,2012-11-14 17:56:00
10:56 AM,61.9,16.2,17,30.14,10.0,East,4.6,-,N/A,,Clear,80,2012-11-14 18:56:00
11:56 AM,63.0,16.2,16,30.11,10.0,Calm,Calm,-,N/A,,Clear,0,2012-11-14 19:56:00
12:56 PM,63.0,17.1,17,30.08,10.0,Calm,Calm,-,N/A,,Clear,0,2012-11-14 20:56:00
1:56 PM,63.9,18.1,17,30.06,10.0,Calm,Calm,-,N/A,,Clear,0,2012-11-14 21:56:00
2:56 PM,63.0,18.1,18,30.05,10.0,Calm,Calm,-,N/A,,Clear,0,2012-11-14 22:56:00
3:56 PM,61.9,18.1,18,30.06,10.0,Calm,Calm,-,N/A,,Clear,0,2012-11-14 23:56:00
4:56 PM,55.9,24.1,29,30.06,10.0,Calm,Calm,-,N/A,,Clear,0,2012-11-15 00:56:00
5:56 PM,52.0,21.0,30,30.08,10.0,Calm,Calm,-,N/A,,Clear,0,2012-11-15 01:56:00
6:56 PM,50.0,21.0,32,30.09,10.0,SSE,8.1,-,N/A,,Clear,160,2012-11-15 02:56:00
7:56 PM,47.8,20.1,33,30.08,10.0,SSE,8.1,-,N/A,,Clear,160,2012-11-15 03:56:00
8:56 PM,48.9,17.1,28,30.07,10.0,SSW,10.4,-,N/A,,Clear,200,2012-11-15 04:56:00
9:56 PM,47.8,16.2,28,30.07,10.0,South,10.4,-,N/A,,Clear,190,2012-11-15 05:56:00
10:56 PM,47.8,16.2,28,30.07,10.0,SSW,12.7,-,N/A,,Clear,210,2012-11-15 06:56:00
11:56 PM,46.9,16.2,29,30.06,10.0,SSW,10.4,-,N/A,,Clear,210,2012-11-15 07:56:00